CAPE
0 0 0 0 0 0 0 0 0 0 0 0 0 0 0 0 0 0 0 0 0 0 0 0 0 0 0 0 0 0 0 23 0 0 0 0 25 40 276 362 311 349 445 1132 1630
0 0 0 0 0 0 0 0 0 0 0 0 0 0 0 0 0 0 0 0 0 0 0 0 0 0 0 0 0 0 0 2 0 0 0 0 0 51 98 148 358 452 718 1333 1772
0 0 0 0 0 0 0 0 0 0 0 0 0 0 0 0 0 0 0 0 0 0 0 0 0 0 0 0 0 0 8 0 0 0 0 0 0 0 7 79 71 223 630 1483 1634
0 0 0 0 0 0 0 0 0 0 0 0 0 0 0 0 0 0 0 0 0 0 0 0 0 0 0 0 0 0 0 0 0 0 0 0 0 1 0 10 17 102 417 1483 1650
0 0 0 0 0 0 0 0 0 0 0 0 0 0 0 0 0 0 0 0 0 0 0 0 0 0 0 0 0 0 0 0 0 0 0 0 0 0 20 4 52 15 370 1183 1714
0 0 0 0 0 0 0 0 0 0 0 0 0 0 0 0 0 0 0 0 0 0 0 0 0 0 0 0 0 0 0 0 0 0 0 0 2 0 20 18 43 53 143 730 1393
0 0 0 0 0 0 0 0 0 0 0 0 0 0 0 0 0 0 0 0 0 0 0 0 0 0 0 0 0 0 0 0 0 0 0 0 0 0 0 0 0 68 97 457 1086
0 0 0 0 0 0 0 0 0 0 0 0 0 0 0 0 0 0 0 0 0 0 0 0 0 0 0 0 0 0 0 0 0 0 0 0 3 14 0 0 0 12 92 237 770
0 0 0 0 0 0 0 0 0 0 0 0 0 0 0 0 0 0 0 0 0 0 0 0 0 0 0 0 0 0 0 1 0 0 0 0 0 10 0 0 0 25 68 259 1067
0 0 0 0 0 0 0 0 0 0 0 0 0 0 0 0 0 0 0 0 0 0 0 0 0 0 0 0 0 0 0 0 0 0 0 0 0 0 0 0 21 134 299 1326 1917
0 0 0 0 0 0 0 0 0 0 0 0 0 0 0 0 0 0 0 0 0 0 0 0 0 0 0 0 0 0 0 0 0 0 0 0 0 0 0 57 98 228 612 1627 1274
0 0 0 0 0 0 0 0 0 0 0 0 0 0 0 0 0 0 0 0 0 0 0 0 0 0 0 0 0 0 0 10 0 0 0 0 1 25 42 205 215 171 779 1387 756
0 0 0 0 0 0 0 0 0 0 0 0 0 0 0 0 0 0 0 0 0 0 0 0 0 0 0 0 0 11 0 0 0 0 0 4 2 68 63 229 422 496 542 998 750
0 0 0 0 0 0 0 0 0 0 0 0 0 0 0 0 0 0 0 0 0 0 0 0 0 0 0 0 0 28 0 0 0 0 0 0 0 54 88 213 493 581 608 669 352
0 0 0 0 0 0 0 0 0 0 28 0 0 0 0 0 0 0 0 0 0 0 0 0 0 0 1 0 0 0 0 0 0 0 0 23 2 147 93 430 283 473 409 173 6
0 0 0 0 0 0 0 0 0 0 13 0 0 0 0 0 0 0 0 0 0 0 0 0 0 0 0 0 0 0 0 0 0 0 13 46 32 43 122 94 615 107 76 5 6
0 0 0 0 0 0 0 0 0 16 0 0 0 0 0 0 0 0 0 0 2 0 2 1 0 0 0 0 2 0 0 0 2 0 12 28 10 152 225 460 682 82 4 6 3
0 0 0 0 0 0 0 0 0 11 0 0 0 0 0 0 0 0 0 2 0 0 3 51 54 16 0 0 0 0 0 9 1 0 0 2 14 57 426 127 100 0 4 1 0
0 0 0 0 0 0 0 0 0 3 0 0 0 0 1 0 0 0 0 20 0 0 0 14 40 13 0 0 0 0 0 0 0 31 58 21 164 284 146 39 6 10 1 0 0
0 0 0 0 0 0 0 0 0 0 0 0 0 2 23 31 1 24 40 5 0 0 0 37 0 9 2 0 1 0 0 0 27 1 8 41 73 100 41 22 172 3 0 0 0
0 0 0 0 0 0 0 0 0 0 0 0 1 1 0 11 0 42 46 0 3 0 0 0 0 0 0 38 0 0 10 5 1 13 20 20 56 7 35 65 300 0 0 0 0
0 0 0 0 0 0 0 0 0 0 0 0 0 0 1 23 22 35 56 25 0 0 0 1 0 0 0 5 0 0 5 12 21 22 14 1 52 20 18 39 116 1 0 0 0
0 0 0 0 0 0 0 0 0 0 0 0 0 0 0 0 0 4 26 0 0 0 37 5 0 0 0 83 37 96 30 16 26 14 16 27 129 13 5 9 7 1 0 0 0
0 0 0 0 0 0 0 0 0 0 0 0 0 0 0 0 3 10 38 2 0 0 0 7 14 23 16 51 6 22 26 44 29 21 40 62 150 93 1 2 3 10 23 0 0
0 0 0 0 0 0 0 0 0 0 0 0 0 0 0 20 40 60 49 38 8 0 22 68 49 0 0 11 10 36 61 49 31 34 58 70 37 91 1 8 13 16 37 15 16
0 0 0 0 0 0 0 0 0 0 0 3 0 0 0 14 49 78 29 63 67 82 26 0 1 2 0 8 30 61 67 36 25 39 59 47 98 5 18 2 11 7 17 14 2
0 0 0 0 0 0 4 1 0 0 0 0 0 6 48 5 11 10 6 3 0 0 0 0 0 0 2 14 40 61 141 101 48 61 9 46 0 3 2 8 17 16 24 8 6
CIN
0 0 0 0 0 0 0 0 0 0 0 0 0 0 0 0 0 0 0 0 0 0 0 0 0 0 0 0 0 0 0 -9 0 0 0 0 -8 -14 -6 -3 -6 -5 -3 -8 -35
0 0 0 0 0 0 0 0 0 0 0 0 0 0 0 0 0 0 0 0 0 0 0 0 0 0 0 0 0 0 -2 -18 0 0 0 0 0 -6 -4 -3 -3 -6 -3 -5 -50
0 0 0 0 0 0 0 0 0 0 0 0 0 0 0 0 0 0 0 0 0 0 0 0 0 0 0 0 0 0 -14 0 0 0 0 0 0 -1 -3 -13 -4 -3 -5 -1 -46
0 0 0 0 0 0 0 0 0 0 0 0 0 0 0 0 0 0 0 0 0 0 0 0 0 0 0 0 0 0 0 0 0 0 0 0 0 -3 -1 -6 -62 -9 -3 -17 -29
0 0 0 0 0 0 0 0 0 0 0 0 0 0 0 0 0 0 0 0 0 0 0 0 0 0 0 0 0 0 0 0 0 0 0 0 0 0 -3 -4 -9 -19 -4 -3 -2
0 0 0 0 0 0 0 0 0 0 0 0 0 0 0 0 0 0 0 0 0 0 0 0 0 0 0 0 0 0 0 0 0 0 0 0 -1 0 -8 -7 -5 -9 -7 -2 -4
0 0 0 0 0 0 0 0 0 0 0 0 0 0 0 0 0 0 0 0 0 0 0 0 0 0 0 0 0 0 0 0 0 0 0 0 0 0 0 0 0 -8 -6 -2 -4
0 0 0 0 0 0 0 0 0 0 0 0 0 0 0 0 0 0 0 0 0 0 0 0 0 0 0 0 0 0 0 0 0 0 0 0 -2 -9 0 0 0 -4 -4 -6 -4
0 0 0 0 0 0 0 0 0 0 0 0 0 0 0 0 0 0 0 0 0 0 0 0 0 0 0 0 0 0 0 -4 -1 0 0 0 0 -14 0 0 0 -6 -4 -5 -35
0 0 0 0 0 0 0 0 0 0 0 0 0 0 0 0 0 0 0 0 0 0 0 0 0 0 0 0 0 0 0 0 0 0 0 0 0 0 0 0 -7 -20 -27 -24 -149
0 0 0 0 0 0 0 0 0 0 0 0 0 0 0 0 0 0 0 0 0 0 0 0 0 0 0 0 0 0 0 0 0 0 0 0 0 0 0 -23 -28 -27 -2 -99 -181
0 0 0 0 0 0 0 0 0 0 0 0 0 0 0 0 0 0 0 0 0 0 0 0 0 0 0 0 0 0 0 -5 0 0 0 0 -2 -6 -24 -23 -58 -40 -2 -60 -195
0 0 0 0 0 0 0 0 0 0 0 0 0 0 0 0 0 0 0 0 0 0 0 0 0 0 0 0 0 -3 0 0 0 0 0 -4 -2 -9 -33 -28 -30 -57 -51 -12 -108
0 0 0 0 0 0 0 0 0 0 0 0 0 0 0 0 0 0 0 0 0 0 0 0 0 0 0 0 0 -5 0 0 0 0 0 0 -1 -3 -7 -6 -15 -22 -11 -3 -93
0 0 0 0 0 0 0 0 0 0 -5 0 0 0 0 0 0 0 0 0 0 0 0 0 0 0 -1 0 0 0 0 0 0 0 0 -12 -9 -30 -7 -10 -32 -78 -113 -129 -24
0 0 0 0 0 0 0 0 0 0 -6 0 0 0 0 0 0 0 0 0 0 0 0 0 0 0 0 0 0 0 0 0 0 0 -12 -16 -12 -6 -38 -3 -51 -278 -210 0 0
0 0 0 0 0 0 0 0 0 -3 0 0 0 0 0 0 0 0 0 0 -1 0 -25 -2 -4 0 0 0 -2 0 0 0 -4 0 -6 -11 -17 -12 -5 -21 -64 -279 0 0 0
0 0 0 0 0 0 0 0 0 -3 0 0 0 0 0 0 0 0 0 -1 0 0 -5 -7 -4 -24 -5 0 0 0 0 -2 -2 0 0 -6 -18 -77 -12 -106 -315 0 0 0 0
0 0 0 0 0 0 0 0 -1 -3 0 0 0 0 -1 0 0 0 0 -3 0 0 0 -5 -4 -10 0 0 0 0 0 0 0 -11 -14 -22 -19 -20 -33 -17 -141 -260 0 0 0
0 0 0 0 0 0 0 0 0 0 0 0 0 -2 -6 -6 -2 -4 -7 -23 0 0 0 -4 0 -5 -4 0 -5 0 0 0 -5 -3 -3 -7 -7 -20 -35 -30 -10 -1 0 0 0
0 0 0 0 0 0 0 0 0 0 0 0 -1 -1 0 -5 0 -5 -5 0 -12 0 0 0 0 0 0 -5 0 0 -1 -1 -1 -4 -4 -4 -9 -65 -93 -79 -11 0 0 0 -1
0 0 0 0 0 0 0 0 0 0 0 0 0 0 -1 -3 -2 -2 -2 -8 -4 0 0 -1 0 0 0 -2 0 0 -4 -4 -3 -2 -6 -5 -5 -50 -79 -62 -18 -1 -1 -2 0
0 0 0 0 0 0 0 0 0 0 0 0 0 0 0 0 -1 -1 -4 0 0 0 -22 -7 0 0 0 -5 -18 -18 -5 -3 -3 -4 -4 -4 -14 -110 -2 -106 -1 -2 0 0 0
0 0 0 0 0 0 0 0 0 0 0 0 0 0 0 0 -2 -1 -5 -10 0 0 0 -13 -13 -2 -4 -4 -7 -4 -4 -5 -4 -4 -5 -7 -4 -47 -17 -6 -11 -17 -5 -14 0
0 0 0 0 0 0 0 0 0 0 0 0 0 0 0 -2 -3 -4 -4 -7 -16 -6 -10 -3 -3 0 0 -3 -4 -3 -5 -6 -4 -4 -5 -6 -16 -1 -6 -8 -4 -8 -1 -8 -1
0 0 0 0 0 0 0 0 0 0 0 -2 0 -1 0 -3 -2 -2 -5 -4 -2 -4 -5 0 -2 -2 0 -4 -5 -7 -3 -6 -3 -4 -5 -8 -5 -70 -3 -25 -11 -16 -2 -2 -21
0 0 0 0 0 0 -7 -2 0 0 0 0 0 -3 -4 -5 -18 -17 -19 -13 0 0 0 0 0 0 -1 -3 -4 -5 -1 -9 -3 -36 -43 -1 -1 -5 -13 -3 -2 -2 -2 -2 -2
Wind_Speed
18 19 16 19 20 20 20 20 20 20 20 20 20 20 19 19 18 17 9 13 9 14 15 13 11 12 13 17 18 18 18 12 11 13 15 14 12 14 11 10 12 12 18 16 16
18 18 18 18 19 19 20 20 20 20 20 19 19 19 19 18 19 18 16 15 11 16 14 13 10 12 13 14 16 19 15 11 13 17 14 13 11 13 11 9 9 10 12 14 15
17 17 18 18 18 19 19 20 20 20 19 19 19 18 18 18 18 13 16 18 17 15 14 13 12 14 13 12 13 15 19 13 13 16 19 9 11 12 10 8 8 8 10 12 12
17 17 17 17 17 18 19 19 20 20 19 19 19 18 19 18 15 16 14 12 15 14 14 12 13 15 13 15 11 12 16 15 19 16 10 10 14 12 8 13 20 8 5 10 9
16 16 16 17 17 18 18 19 19 20 19 19 19 18 17 17 15 12 12 13 14 13 12 13 12 13 12 9 10 11 11 12 16 13 12 15 11 12 11 5 8 15 4 6 7
15 15 16 16 17 17 18 19 19 20 20 19 18 18 18 19 13 12 12 12 14 13 7 13 16 18 17 10 13 7 12 13 12 14 12 9 10 12 12 18 4 8 5 4 5
14 14 15 16 16 17 18 19 19 20 20 19 18 18 19 16 14 10 12 15 13 14 17 16 18 16 18 10 7 8 6 6 8 15 15 16 3 6 19 17 9 11 1 4 0
14 14 14 15 16 17 18 19 19 20 19 19 18 18 14 15 8 13 14 14 13 13 18 19 19 18 13 18 8 8 8 4 10 13 14 10 15 15 20 20 18 20 12 6 6
14 14 14 14 15 16 17 18 19 19 19 18 17 14 11 14 13 10 13 10 13 11 10 14 14 13 9 9 7 7 3 5 11 15 15 9 14 21 24 24 23 23 22 12 14
16 15 15 15 14 15 15 14 13 13 17 19 18 15 10 14 15 12 11 11 12 12 12 11 12 11 11 9 18 12 11 10 10 18 23 18 18 21 23 23 22 21 20 19 16
18 18 17 16 15 14 13 13 13 12 18 19 14 15 13 14 13 13 12 13 13 12 12 11 10 17 18 19 20 17 16 15 19 19 21 24 19 16 19 21 22 22 17 17 17
20 19 18 17 17 16 16 16 16 18 19 10 14 12 11 13 12 13 13 10 10 9 13 10 15 16 16 17 16 15 16 20 20 16 20 20 17 11 14 20 22 22 19 16 17
22 20 18 18 17 17 15 16 17 17 15 12 11 11 11 12 14 13 12 13 15 12 18 18 16 15 13 15 20 12 19 24 25 28 15 17 15 4 10 17 20 21 20 18 19
23 21 19 17 16 13 13 17 17 15 16 12 12 12 12 12 12 16 14 18 12 17 14 16 17 14 13 16 21 19 23 26 25 27 28 29 23 4 8 12 17 20 21 21 20
24 21 19 17 19 17 17 19 17 5 10 12 11 11 10 9 13 13 14 12 17 16 13 14 18 18 15 20 21 26 26 20 19 15 18 26 8 11 9 16 17 23 23 22 22
24 21 19 16 19 19 20 19 18 10 13 12 11 10 9 10 13 12 12 15 16 16 16 16 16 17 21 18 15 21 28 34 10 7 14 11 16 19 13 14 17 21 22 21 21
24 20 19 18 18 20 20 19 9 14 12 11 9 9 8 9 11 13 12 13 18 17 13 17 10 15 19 26 25 32 34 36 26 27 21 18 21 21 15 17 16 19 20 21 20
24 21 14 18 20 20 20 8 13 15 13 12 11 9 8 10 10 12 12 11 13 19 24 20 18 18 21 27 28 25 26 24 32 30 27 18 21 19 18 21 18 20 21 20 19
23 16 16 19 18 19 18 7 15 14 14 14 9 6 6 9 11 11 12 18 18 20 20 23 16 20 20 24 25 28 25 28 21 14 17 22 16 21 25 22 18 21 21 21 20
19 17 16 19 17 19 14 14 15 14 17 11 10 11 15 9 11 10 9 13 15 17 19 20 26 23 22 25 11 23 26 26 23 28 27 25 26 24 27 28 22 23 23 21 19
17 15 16 18 18 15 12 13 12 14 17 15 15 15 14 16 16 17 16 14 17 17 20 23 22 26 29 20 27 31 24 27 26 21 28 29 26 23 28 30 26 23 23 22 22
17 17 17 17 14 15 16 14 16 16 15 14 15 18 17 16 17 17 19 17 16 20 22 21 24 27 31 22 22 21 20 25 28 28 28 26 26 24 26 27 24 22 22 22 25
20 19 16 16 16 12 15 13 15 16 16 16 15 15 16 18 19 17 18 17 18 19 21 24 24 31 28 18 21 19 25 26 26 26 24 28 21 25 21 26 25 22 22 25 28
21 18 15 16 17 19 16 14 14 16 16 17 18 16 16 16 14 18 15 16 17 18 18 20 22 24 26 29 29 26 25 24 25 25 27 26 27 28 31 28 24 23 25 28 28
19 18 20 18 15 18 16 18 18 16 17 17 15 17 17 17 16 15 15 14 13 15 17 19 25 28 25 27 25 22 23 25 27 27 26 28 26 27 27 25 24 26 28 26 30
22 21 18 19 19 17 15 17 19 16 19 16 17 17 16 16 18 20 17 20 20 15 26 24 26 26 26 20 16 21 24 23 22 24 26 23 22 24 23 25 25 27 27 30 31
21 17 18 16 15 17 16 17 17 16 16 17 18 16 13 17 19 19 19 19 21 23 25 22 22 23 23 21 21 19 22 19 23 24 25 24 22 26 27 26 24 28 30 31 33
Wind_Direction
286 262 207 256 264 258 267 267 266 264 267 261 261 265 267 267 254 177 58 302 213 141 194 169 121 136 132 166 167 175 179 100 47 54 39 51 72 54 64 64 93 95 355 52 94
264 251 248 250 251 251 260 257 257 256 256 256 258 261 262 265 231 175 296 279 161 164 181 183 145 61 116 108 123 158 163 358 9 354 6 42 73 45 64 81 79 78 44 72 98
270 251 258 244 234 242 246 246 249 248 250 252 254 255 256 261 217 329 289 159 155 175 198 193 162 146 107 91 107 146 309 350 21 350 323 59 48 48 55 139 104 110 103 100 112
258 261 247 231 226 233 236 240 243 244 246 247 250 254 253 208 312 318 317 64 126 165 189 140 122 138 119 133 103 135 336 356 335 358 48 74 12 23 72 205 298 79 124 92 127
275 260 240 224 223 225 229 234 237 238 241 244 249 258 246 171 337 3 8 48 122 156 162 165 131 129 104 49 90 133 29 27 8 29 35 12 33 19 25 108 6 344 40 73 133
279 254 238 225 220 221 227 231 232 234 238 242 246 257 204 227 359 29 15 79 161 161 274 225 305 277 317 111 140 80 4 17 30 19 34 52 24 18 35 352 177 15 142 50 146
287 266 249 234 226 224 227 228 229 231 234 237 244 254 221 324 313 46 80 156 7 172 235 325 260 194 315 57 97 77 103 93 40 11 13 6 360 18 343 358 6 206 67 334 128
295 272 258 248 236 232 231 231 231 229 230 230 236 223 299 325 315 117 120 120 90 123 229 259 240 218 168 327 81 134 144 102 33 24 20 45 12 5 353 347 343 327 334 311 300
300 284 266 255 250 245 240 237 228 218 203 220 221 177 15 39 74 61 114 146 354 36 101 217 174 167 97 129 117 89 114 136 37 22 7 29 351 359 353 341 335 327 320 322 326
303 290 278 270 261 250 241 235 255 262 212 181 210 209 44 350 348 15 72 104 112 81 110 104 100 116 95 40 342 10 18 9 356 358 349 351 344 347 348 348 347 342 326 331 345
306 299 290 281 271 253 277 343 13 36 153 247 325 328 29 9 55 58 57 82 122 108 145 76 134 343 348 347 346 356 357 353 354 357 349 339 343 349 357 357 353 348 353 346 349
310 303 289 280 277 282 266 294 313 287 235 23 331 320 2 359 34 34 69 107 115 67 48 88 8 6 6 4 11 8 1 352 352 7 349 346 347 347 4 1 357 353 356 357 350
310 304 289 275 271 266 280 317 278 288 202 13 19 62 54 85 351 23 99 4 338 30 338 344 12 18 23 20 356 7 353 345 338 338 350 348 341 17 11 8 7 8 358 5 356
309 302 288 277 280 294 329 291 282 315 176 28 73 60 74 55 19 336 342 289 32 343 4 357 8 13 19 11 355 357 354 343 343 342 338 333 338 337 30 8 16 16 8 2 1
305 296 284 284 261 246 290 277 277 189 10 31 47 29 42 46 30 31 350 30 347 2 19 14 3 4 4 352 353 338 344 351 341 329 342 345 22 41 8 25 21 16 3 1 3
301 290 279 286 215 283 273 275 253 32 349 29 34 72 76 43 12 28 19 353 351 357 353 6 1 1 354 358 359 351 340 333 325 317 347 29 352 348 5 350 351 3 4 2 1
296 283 281 266 284 279 269 243 25 338 15 25 50 54 82 46 21 4 12 7 348 355 10 0 20 9 358 347 344 335 333 332 344 345 348 3 343 352 2 356 6 3 1 358 0
291 283 332 298 279 277 259 11 333 338 2 360 4 23 27 15 8 3 2 357 6 338 329 345 353 357 358 346 342 347 348 348 332 336 335 336 342 341 348 355 8 11 6 3 2
286 321 316 309 296 284 289 9 337 342 344 348 13 26 26 4 349 0 351 342 344 345 340 334 344 358 354 349 345 345 348 339 343 340 337 353 15 351 352 3 9 11 7 3 359
303 304 324 299 298 280 322 322 335 331 326 350 350 349 335 5 0 1 0 358 354 350 348 343 328 339 343 346 3 348 347 353 348 338 336 337 338 342 346 346 353 355 2 3 3
303 317 324 295 293 310 324 339 341 339 322 329 332 335 330 335 332 336 342 355 348 349 343 337 336 331 334 347 336 336 339 342 339 339 334 332 341 349 342 342 349 356 360 3 2
303 314 318 300 315 317 319 325 323 327 334 334 325 323 326 336 328 331 329 343 349 342 338 344 337 332 328 340 344 344 347 345 337 334 332 331 334 354 352 356 359 1 2 3 356
300 302 325 307 316 324 326 330 327 329 330 326 326 329 331 323 322 326 329 343 343 343 340 342 337 330 334 348 354 346 342 342 340 336 332 331 338 348 7 0 2 6 5 355 348
303 308 323 316 310 306 324 329 328 331 328 324 318 323 322 322 329 324 328 342 343 345 346 345 338 332 329 328 330 331 336 338 339 333 331 332 337 334 345 352 1 0 356 351 352
312 310 306 310 320 316 319 319 316 323 329 328 328 320 320 319 322 328 330 344 348 350 348 345 332 330 330 329 331 330 334 336 333 332 331 335 339 343 348 356 355 355 356 1 355
304 304 314 311 311 315 319 316 313 325 323 327 323 331 326 323 327 333 335 333 334 350 336 336 330 333 331 335 337 335 337 339 343 343 339 345 349 349 358 354 354 355 355 355 354
320 323 315 321 318 310 313 318 318 322 332 328 327 334 343 334 331 334 338 337 332 330 331 335 336 337 335 339 340 341 348 353 350 348 346 344 352 349 353 354 358 356 356 356 353